• In Germany
  • List of Countries
  • For 7 days
  • Water Temperature
  • Satellite Maps
  • Weather Map
  • Weather Widgets
  • user-avatar
    Login

    Hourly Weather Satif

    Today, 29 May, Monday

    Time Temperature Precipitation Wind Pressure Humidity
    00:00 +19°C° 0 mm 1 mps 671 mmHg 62%
    01:00 +18°C° 0 mm 2 mps 671 mmHg 61%
    02:00 +17°C° 0 mm 2 mps 671 mmHg 61%
    03:00 +17°C° 0 mm 2 mps 671 mmHg 61%
    04:00 +18°C° 0 mm 2 mps 671 mmHg 59%
    05:00 +19°C° 0 mm 2 mps 671 mmHg 57%
    06:00 +20°C° 0 mm 2 mps 672 mmHg 55%
    07:00 +23°C° 0 mm 2 mps 672 mmHg 49%
    08:00 +25°C° 0 mm 2 mps 673 mmHg 44%
    09:00 +26°C° 0 mm 2 mps 673 mmHg 39%
    10:00 +27°C° 0 mm 2 mps 674 mmHg 37%
    11:00 +28°C° 0 mm 3 mps 674 mmHg 36%
    12:00 +29°C° 0 mm 3 mps 674 mmHg 34%
    13:00 +29°C° 0 mm 3 mps 673 mmHg 37%
    14:00 +28°C° 0 mm 2 mps 673 mmHg 39%
    15:00 +28°C° 0 mm 2 mps 673 mmHg 41%
    16:00 +26°C° 0.2 mm 2 mps 672 mmHg 49%
    17:00 +24°C° 0.2 mm 2 mps 672 mmHg 56%
    18:00 +23°C° 0.2 mm 1 mps 672 mmHg 63%
    19:00 +22°C° 0.1 mm 1 mps 672 mmHg 68%
    20:00 +20°C° 0.1 mm 1 mps 672 mmHg 72%
    21:00 +19°C° 0.1 mm 1 mps 672 mmHg 76%
    22:00 +19°C° 0.3 mm 1 mps 672 mmHg 77%
    23:00 +18°C° 0.3 mm 1 mps 672 mmHg 78%

    Tomorrow, 30 May, Tuesday

    Time Temperature Precipitation Wind Pressure Humidity
    00:00 +18°C° 0.3 mm 1 mps 672 mmHg 79%
    01:00 +18°C° 0.1 mm 1 mps 672 mmHg 79%
    02:00 +18°C° 0.1 mm 1 mps 671 mmHg 78%
    03:00 +16°C° 0.1 mm 1 mps 671 mmHg 78%
    04:00 +18°C° 0 mm 1 mps 671 mmHg 76%
    05:00 +18°C° 0 mm 1 mps 672 mmHg 75%
    06:00 +18°C° 0 mm 1 mps 672 mmHg 73%
    07:00 +19°C° 0.1 mm 1 mps 673 mmHg 69%
    08:00 +20°C° 0.1 mm 1 mps 673 mmHg 65%
    09:00 +21°C° 0.1 mm 1 mps 674 mmHg 61%
    10:00 +21°C° 0.8 mm 1 mps 674 mmHg 64%
    11:00 +19°C° 0.8 mm 2 mps 674 mmHg 67%
    12:00 +19°C° 0.8 mm 2 mps 674 mmHg 69%
    13:00 +20°C° 0.9 mm 1 mps 674 mmHg 72%
    14:00 +19°C° 0.9 mm 1 mps 673 mmHg 75%
    15:00 +19°C° 0.9 mm 1 mps 673 mmHg 77%
    16:00 +19°C° 0.2 mm 1 mps 673 mmHg 77%
    17:00 +19°C° 0.2 mm 1 mps 673 mmHg 77%
    18:00 +19°C° 0.2 mm 1 mps 673 mmHg 77%
    19:00 +18°C° 0.1 mm 1 mps 673 mmHg 81%
    20:00 +16°C° 0.1 mm 1 mps 673 mmHg 85%
    21:00 +15°C° 0.1 mm 1 mps 673 mmHg 88%
    22:00 +15°C° 0.1 mm 1 mps 673 mmHg 89%
    23:00 +14°C° 0.1 mm 1 mps 673 mmHg 89%

    Day after tomorrow, 31 May, Wednesday

    Time Temperature Precipitation Wind Pressure Humidity
    00:00 +14°C° 0.1 mm 1 mps 673 mmHg 90%
    01:00 +14°C° 0 mm 1 mps 672 mmHg 89%
    02:00 +14°C° 0 mm 1 mps 672 mmHg 89%
    03:00 +14°C° 0 mm 1 mps 672 mmHg 89%
    04:00 +15°C° 0.2 mm 1 mps 672 mmHg 85%
    05:00 +16°C° 0.2 mm 1 mps 673 mmHg 81%
    06:00 +18°C° 0.2 mm 1 mps 673 mmHg 77%
    07:00 +20°C° 0.4 mm 1 mps 674 mmHg 68%
    08:00 +20°C° 0.4 mm 0 mps 675 mmHg 59%
    09:00 +22°C° 0.4 mm 0 mps 675 mmHg 50%
    10:00 +23°C° 0.1 mm 0 mps 675 mmHg 46%
    11:00 +27°C° 0.1 mm 1 mps 676 mmHg 42%
    12:00 +28°C° 0.1 mm 1 mps 676 mmHg 38%
    13:00 +28°C° 0.1 mm 1 mps 676 mmHg 39%
    14:00 +27°C° 0.1 mm 1 mps 675 mmHg 40%
    15:00 +27°C° 0.1 mm 2 mps 675 mmHg 41%
    16:00 +25°C° 0.3 mm 1 mps 674 mmHg 49%
    17:00 +24°C° 0.3 mm 1 mps 674 mmHg 56%
    18:00 +23°C° 0.3 mm 1 mps 674 mmHg 63%
    19:00 +21°C° 0 mm 1 mps 674 mmHg 68%
    20:00 +20°C° 0 mm 1 mps 674 mmHg 72%
    21:00 +19°C° 0 mm 1 mps 674 mmHg 77%
    22:00 +19°C° 0 mm 1 mps 674 mmHg 77%
    23:00 +19°C° 0 mm 1 mps 674 mmHg 78%

    1 June, Thursday

    Time Temperature Precipitation Wind Pressure Humidity
    00:00 +19°C° 0 mm 1 mps 673 mmHg 79%
    01:00 +18°C° 0 mm 1 mps 673 mmHg 81%
    02:00 +16°C° 0 mm 1 mps 673 mmHg 84%
    03:00 +14°C° 0 mm 0 mps 672 mmHg 87%
    04:00 +16°C° 0 mm 0 mps 673 mmHg 80%
    05:00 +17°C° 0 mm 0 mps 674 mmHg 74%
    06:00 +19°C° 0 mm 0 mps 674 mmHg 67%
    07:00 +21°C° 0 mm 0 mps 675 mmHg 58%
    08:00 +24°C° 0 mm 0 mps 676 mmHg 48%
    09:00 +28°C° 0 mm 1 mps 676 mmHg 39%
    10:00 +29°C° 0.3 mm 1 mps 676 mmHg 36%
    11:00 +30°C° 0.3 mm 1 mps 676 mmHg 34%
    12:00 +31°C° 0.3 mm 1 mps 676 mmHg 31%
    13:00 +30°C° 0.1 mm 1 mps 676 mmHg 32%
    14:00 +30°C° 0.1 mm 2 mps 676 mmHg 34%
    15:00 +29°C° 0.1 mm 2 mps 675 mmHg 35%
    16:00 +27°C° 0 mm 2 mps 675 mmHg 42%
    17:00 +26°C° 0 mm 2 mps 675 mmHg 49%
    18:00 +24°C° 0 mm 1 mps 674 mmHg 56%
    19:00 +23°C° 0.6 mm 1 mps 674 mmHg 63%
    20:00 +21°C° 0.6 mm 1 mps 674 mmHg 70%
    21:00 +20°C° 0.6 mm 1 mps 674 mmHg 77%
    22:00 +19°C° 0 mm 1 mps 674 mmHg 78%
    23:00 +19°C° 0 mm 1 mps 674 mmHg 80%

    2 June, Friday

    Time Temperature Precipitation Wind Pressure Humidity
    00:00 +19°C° 0 mm 1 mps 674 mmHg 81%
    01:00 +18°C° 0 mm 1 mps 673 mmHg 82%
    02:00 +18°C° 0 mm 1 mps 673 mmHg 82%
    03:00 +15°C° 0 mm 0 mps 673 mmHg 83%
    04:00 +19°C° 0 mm 1 mps 673 mmHg 77%
    05:00 +20°C° 0 mm 1 mps 674 mmHg 70%
    06:00 +21°C° 0 mm 1 mps 674 mmHg 64%
    07:00 +24°C° 0 mm 1 mps 675 mmHg 56%
    08:00 +26°C° 0 mm 1 mps 676 mmHg 48%
    09:00 +28°C° 0 mm 1 mps 676 mmHg 39%
    10:00 +29°C° 0.1 mm 2 mps 676 mmHg 37%
    11:00 +30°C° 0.1 mm 2 mps 676 mmHg 34%
    12:00 +31°C° 0.1 mm 2 mps 676 mmHg 31%
    13:00 +30°C° 0 mm 2 mps 675 mmHg 32%
    14:00 +30°C° 0 mm 2 mps 675 mmHg 33%
    15:00 +29°C° 0 mm 2 mps 674 mmHg 35%
    16:00 +28°C° 0 mm 2 mps 674 mmHg 40%
    17:00 +27°C° 0 mm 1 mps 674 mmHg 46%
    18:00 +26°C° 0 mm 1 mps 673 mmHg 52%
    19:00 +24°C° 0.4 mm 1 mps 673 mmHg 58%
    20:00 +23°C° 0.4 mm 1 mps 673 mmHg 64%
    21:00 +21°C° 0.4 mm 1 mps 673 mmHg 70%
    22:00 +21°C° 0.9 mm 1 mps 673 mmHg 72%
    23:00 +19°C° 0.9 mm 2 mps 673 mmHg 75%

    3 June, Saturday

    Time Temperature Precipitation Wind Pressure Humidity
    00:00 +19°C° 0.9 mm 2 mps 672 mmHg 77%
    01:00 +19°C° 0.2 mm 2 mps 672 mmHg 78%
    02:00 +18°C° 0.2 mm 2 mps 672 mmHg 78%
    03:00 +18°C° 0.2 mm 2 mps 671 mmHg 79%
    04:00 +18°C° 0 mm 2 mps 672 mmHg 75%
    05:00 +19°C° 0 mm 2 mps 672 mmHg 71%
    06:00 +20°C° 0 mm 2 mps 672 mmHg 67%
    07:00 +23°C° 0 mm 2 mps 673 mmHg 58%
    08:00 +26°C° 0 mm 3 mps 674 mmHg 49%
    09:00 +28°C° 0 mm 3 mps 674 mmHg 40%
    10:00 +29°C° 0 mm 3 mps 674 mmHg 38%
    11:00 +30°C° 0 mm 3 mps 674 mmHg 35%
    12:00 +31°C° 0 mm 2 mps 674 mmHg 32%
    13:00 +31°C° 0.1 mm 3 mps 674 mmHg 33%
    14:00 +31°C° 0.1 mm 3 mps 674 mmHg 33%
    15:00 +30°C° 0.1 mm 3 mps 673 mmHg 34%
    16:00 +28°C° 1.5 mm 3 mps 673 mmHg 47%
    17:00 +25°C° 1.5 mm 3 mps 673 mmHg 60%
    18:00 +21°C° 1.5 mm 3 mps 672 mmHg 73%
    19:00 +21°C° 3.3 mm 2 mps 673 mmHg 77%
    20:00 +20°C° 3.3 mm 2 mps 673 mmHg 81%
    21:00 +20°C° 3.3 mm 1 mps 673 mmHg 85%
    22:00 +20°C° 0 mm 1 mps 673 mmHg 85%
    23:00 +19°C° 0 mm 1 mps 673 mmHg 86%
    Show more